$Date,$Time,DM0201B,DM0203B,DM0205B,DM0207B,DM0209B
04/01/99,00:00:01,461,171,-18,41,955
04/01/99,00:05:01,501,171,-18,41,955
04/01/99,00:10:01,493,171,-18,43,955
04/01/99,00:15:01,481,171,-18,43,955
04/01/99,00:20:01,474,171,-18,43,955
04/01/99,00:25:01,530,171,-18,47,955
04/01/99,00:30:01,472,171,-18,45,955
04/01/99,00:35:01,510,171,-18,47,955
04/01/99,00:40:01,496,174,-18,47,955
04/01/99,00:45:01,443,164,-18,45,957
04/01/99,00:50:01,489,164,-18,45,957
04/01/99,00:55:01,454,164,-18,45,957
04/01/99,01:00:01,539,164,-18,45,957
04/01/99,01:05:01,482,164,-18,45,957
04/01/99,01:10:01,498,164,-18,45,957
04/01/99,01:15:01,506,171,-18,44,957
04/01/99,01:20:01,567,161,-18,45,955
04/01/99,01:25:01,577,161,-18,45,955
04/01/99,01:30:01,604,160,-18,43,955
04/01/99,01:35:01,598,171,-18,44,955
04/01/99,01:40:01,540,160,-18,44,955
04/01/99,01:45:01,547,170,-18,44,955
04/01/99,01:50:01,597,160,-18,45,955
04/01/99,01:55:01,665,168,-18,44,955
04/01/99,02:00:01,586,168,-18,42,955
04/01/99,02:05:01,589,169,-18,42,955
04/01/99,02:10:01,565,169,-18,39,955
04/01/99,02:15:01,651,169,-18,39,955
04/01/99,02:20:01,572,169,-18,39,955
04/01/99,02:25:01,619,169,-18,39,955
04/01/99,02:30:01,624,169,-18,36,955
04/01/99,02:35:01,628,158,-18,34,955
04/01/99,02:40:01,595,168,-18,34,955
04/01/99,02:45:01,643,168,-18,32,955
04/01/99,02:50:01,586,168,-18,32,955
04/01/99,02:55:01,665,157,-18,34,955
04/01/99,03:00:01,552,160,-18,34,955
04/01/99,03:05:01,678,160,-18,32,955
04/01/99,03:10:01,645,161,-20,30,955
04/01/99,03:15:01,631,161,-20,28,955
04/01/99,03:20:01,621,171,-20,28,955
04/01/99,03:25:01,634,157,-20,26,955
04/01/99,03:30:01,616,167,-20,28,955
04/01/99,03:35:01,607,167,-20,28,955
04/01/99,03:40:01,669,165,-20,30,955
04/01/99,03:45:01,597,165,-20,28,955
04/01/99,03:50:01,610,165,-20,26,955
04/01/99,03:55:01,484,165,-20,24,955
04/01/99,04:00:01,637,165,-20,20,955
04/01/99,04:05:01,631,165,-20,18,955
04/01/99,04:10:01,615,165,-20,18,955
04/01/99,04:15:01,651,165,-20,16,955
04/01/99,04:20:01,642,155,-20,14,955
04/01/99,04:25:01,667,158,-20,14,955
04/01/99,04:30:01,638,168,-20,14,955
04/01/99,04:35:01,612,158,-20,14,955
04/01/99,04:40:01,625,172,-20,12,955
04/01/99,04:45:01,570,162,-20,12,957
04/01/99,04:50:01,599,162,-20,10,957
04/01/99,04:55:01,541,162,-20,8,957
04/01/99,05:00:01,564,162,-20,8,957
04/01/99,05:05:01,586,162,-20,8,957
04/01/99,05:10:01,587,163,-20,6,957
04/01/99,05:15:01,569,163,-20,6,957
04/01/99,05:20:01,643,163,-20,4,957
04/01/99,05:25:01,547,163,-20,4,957
04/01/99,05:30:01,630,163,-20,4,957
04/01/99,05:35:01,571,163,-20,4,957
04/01/99,05:40:01,599,163,-20,2,957
04/01/99,05:45:01,548,163,-20,2,957
04/01/99,05:50:01,664,163,-20,2,957
04/01/99,05:55:01,640,163,-20,2,957
04/01/99,06:00:01,593,163,-20,2,957
04/01/99,06:05:01,545,163,-20,2,957
04/01/99,06:10:01,619,163,-20,0,957
04/01/99,06:15:01,600,163,-20,0,957
04/01/99,06:20:01,527,163,-20,0,957
04/01/99,06:25:01,627,163,-20,0,957
04/01/99,06:30:01,587,163,-20,0,957
04/01/99,06:35:01,525,163,-20,0,957
04/01/99,06:40:01,653,163,-20,0,957
04/01/99,06:45:01,583,163,-20,0,957
04/01/99,06:50:01,625,163,-20,0,957
04/01/99,06:55:01,514,162,-20,0,957
04/01/99,07:00:01,607,162,-20,0,957
04/01/99,07:05:01,613,162,-20,0,957
04/01/99,07:10:01,562,162,-20,0,957
04/01/99,07:15:01,581,164,-20,0,957
04/01/99,07:20:01,593,164,-20,0,957
04/01/99,07:25:01,599,164,-20,0,957
04/01/99,07:30:01,601,164,-20,0,957
04/01/99,07:35:01,661,164,-20,0,957
04/01/99,07:40:01,566,164,-20,0,957
04/01/99,07:45:01,525,164,-20,0,957
04/01/99,07:50:01,596,165,-20,0,957
04/01/99,07:55:01,565,167,-20,0,957
04/01/99,08:00:01,635,167,-20,0,957
04/01/99,08:05:01,591,167,-20,0,957
04/01/99,08:10:01,615,160,-20,0,957
04/01/99,08:15:01,653,160,-20,0,957
04/01/99,08:20:01,571,160,-20,0,957
04/01/99,08:25:01,635,172,-20,0,957
04/01/99,08:30:01,644,170,-20,0,957
04/01/99,08:35:01,607,160,-20,0,957
04/01/99,08:40:01,519,172,-20,0,957
04/01/99,08:45:01,661,164,-20,0,957
04/01/99,08:50:01,502,164,-20,0,957
04/01/99,08:55:01,714,164,-20,0,957
04/01/99,09:00:01,644,170,-20,0,957
04/01/99,09:05:01,549,170,-20,0,957
04/01/99,09:10:01,591,172,-20,0,957
04/01/99,09:15:01,568,162,-20,0,957
04/01/99,09:20:01,602,162,-20,0,957
04/01/99,09:25:01,647,162,-20,0,957
04/01/99,09:30:01,669,162,-20,0,957
04/01/99,09:35:01,684,162,-20,0,957
04/01/99,09:40:01,590,172,-20,0,957
04/01/99,09:45:01,556,161,-20,0,957
04/01/99,09:50:01,591,161,-20,0,957
04/01/99,09:55:01,571,161,-20,0,957
04/01/99,10:00:01,633,171,-20,0,957
04/01/99,10:05:01,632,171,-20,0,957
04/01/99,10:10:01,625,172,-20,0,957
04/01/99,10:15:01,619,172,-20,0,957
04/01/99,10:20:01,550,162,-20,0,957
04/01/99,10:25:01,653,162,-20,0,957
04/01/99,10:30:01,616,172,-20,0,957
04/01/99,10:35:01,609,162,-20,0,957
04/01/99,10:40:01,690,162,-20,0,957
04/01/99,10:45:01,677,172,-20,0,955
04/01/99,10:50:01,607,167,-20,0,957
04/01/99,10:55:01,730,167,-20,0,955
04/01/99,11:00:01,700,167,-20,0,957
04/01/99,11:05:01,699,167,-20,0,957
04/01/99,11:10:01,623,167,-20,0,955
04/01/99,11:15:01,667,167,-20,0,957
04/01/99,11:20:01,645,167,-20,0,957
04/01/99,11:25:01,552,167,-20,0,957
04/01/99,11:30:01,641,167,-20,0,955
04/01/99,11:35:01,667,167,-20,0,957
04/01/99,11:40:01,641,167,-20,0,955
04/01/99,11:45:01,603,167,-20,0,955
04/01/99,11:50:01,646,167,-20,0,955
04/01/99,11:55:01,640,165,-20,0,955
04/01/99,12:00:01,667,165,-20,0,955
04/01/99,12:05:01,668,165,-20,0,955
04/01/99,12:10:01,683,165,-20,0,955
04/01/99,12:15:01,688,165,-20,0,955
04/01/99,12:20:01,569,165,-20,0,955
04/01/99,12:25:01,699,165,-20,0,955
04/01/99,12:30:01,596,165,-20,0,955
04/01/99,12:35:01,651,165,-20,0,955
04/01/99,12:40:01,699,165,-20,0,955
04/01/99,12:45:01,651,165,-20,0,955
04/01/99,12:50:01,616,165,-20,0,955
04/01/99,12:55:01,588,165,-20,0,955
04/01/99,13:00:01,642,165,-20,0,955
04/01/99,13:05:01,654,162,-20,0,955
04/01/99,13:10:01,677,162,-20,0,955
04/01/99,13:15:01,678,162,-20,0,955
04/01/99,13:20:01,702,163,-20,0,955
04/01/99,13:25:01,710,162,-20,0,955
04/01/99,13:30:01,717,170,-20,0,955
04/01/99,13:35:01,711,160,-20,0,955
04/01/99,13:40:01,770,170,-20,0,955
04/01/99,13:45:01,681,160,-20,0,955
04/01/99,13:50:01,665,171,-20,0,955
04/01/99,13:55:01,607,171,-20,0,955
04/01/99,14:00:01,675,163,-20,0,955
04/01/99,14:05:01,653,161,-20,0,955
04/01/99,14:10:01,573,161,-20,0,955
04/01/99,14:15:01,556,174,-20,0,955
04/01/99,14:20:01,733,163,-20,0,955
04/01/99,14:25:01,660,163,-20,0,953
04/01/99,14:30:01,674,163,-20,0,953
04/01/99,14:35:01,710,163,-20,0,955
04/01/99,14:40:01,618,163,-20,0,953
04/01/99,14:45:01,648,163,-20,0,953
04/01/99,14:50:01,662,163,-20,0,955
04/01/99,14:55:01,678,163,-20,0,953
04/01/99,15:00:01,651,171,-20,0,953
04/01/99,15:05:01,707,171,-20,0,953
04/01/99,15:10:01,724,161,-20,0,953
04/01/99,15:15:01,631,164,-20,0,953
04/01/99,15:20:01,689,164,-18,0,953
04/01/99,15:25:01,688,174,-18,0,955
04/01/99,15:30:01,716,174,-18,0,955
04/01/99,15:35:01,623,162,-18,0,953
04/01/99,15:40:01,768,172,-18,0,953
04/01/99,15:45:01,694,172,-18,0,953
04/01/99,15:50:01,715,172,-18,0,953
04/01/99,15:55:01,675,162,-18,0,953
04/01/99,16:00:01,631,162,-18,0,953
04/01/99,16:05:01,696,172,-18,0,953
04/01/99,16:10:01,683,162,-18,0,953
04/01/99,16:15:01,773,162,-18,0,953
04/01/99,16:20:01,641,173,-18,0,953
04/01/99,16:25:01,686,172,-18,0,953
04/01/99,16:30:01,642,161,-18,0,953
04/01/99,16:35:01,634,164,-18,0,953
04/01/99,16:40:01,627,164,-18,0,953
04/01/99,16:45:01,626,164,-18,0,953
04/01/99,16:50:01,647,164,-18,0,953
04/01/99,16:55:01,628,176,-18,0,953
04/01/99,17:00:01,671,172,-18,0,953
04/01/99,17:05:01,693,166,-18,0,953
04/01/99,17:10:01,652,166,-18,0,953
04/01/99,17:15:01,674,166,-18,0,953
04/01/99,17:20:01,626,166,-18,0,953
04/01/99,17:25:01,598,166,-18,0,953
04/01/99,17:30:01,652,166,-18,0,953
04/01/99,17:35:01,629,166,-18,0,953
04/01/99,17:40:01,626,166,-18,0,953
04/01/99,17:45:01,665,166,-18,0,953
04/01/99,17:50:01,663,166,-18,0,953
04/01/99,17:55:01,679,166,-18,0,953
04/01/99,18:00:01,702,166,-18,0,953
04/01/99,18:05:01,642,166,-18,0,953
04/01/99,18:10:01,671,166,-18,0,953
04/01/99,18:15:01,648,166,-18,0,953
04/01/99,18:20:01,591,166,-18,0,953
04/01/99,18:25:01,712,167,-18,0,953
04/01/99,18:30:01,690,167,-16,0,951
04/01/99,18:35:01,659,167,-16,0,953
04/01/99,18:40:01,623,167,-16,0,953
04/01/99,18:45:01,607,167,-16,0,953
04/01/99,18:50:01,690,167,-16,0,951
04/01/99,18:55:01,674,167,-16,0,951
04/01/99,19:00:01,574,167,-16,0,953
04/01/99,19:05:01,631,167,-16,0,953
04/01/99,19:10:01,613,167,-16,0,951
04/01/99,19:15:01,621,167,-16,0,951
04/01/99,19:20:01,691,167,-16,0,951
04/01/99,19:25:01,518,178,-16,0,953
04/01/99,19:30:01,466,176,-16,0,953
04/01/99,19:35:01,314,204,-16,0,953
04/01/99,19:40:01,463,165,-16,0,953
04/01/99,19:45:01,516,165,-16,0,953
04/01/99,19:50:01,678,165,-16,0,953
04/01/99,19:55:01,626,165,-16,0,953
04/01/99,20:00:01,605,165,-16,0,953
04/01/99,20:05:01,598,166,-16,0,953
04/01/99,20:10:01,669,173,-16,0,953
04/01/99,20:15:01,561,173,-16,2,953
04/01/99,20:20:01,557,163,-16,2,953
04/01/99,20:25:01,603,163,-16,4,951
04/01/99,20:30:01,597,164,-16,4,951
04/01/99,20:35:01,679,164,-16,4,951
04/01/99,20:40:01,621,164,-16,4,951
04/01/99,20:45:01,593,170,-16,6,951
04/01/99,20:50:01,680,170,-16,6,951
04/01/99,20:55:01,667,159,-16,6,951
04/01/99,21:00:01,617,169,-16,8,951
04/01/99,21:05:01,612,169,-16,8,951
04/01/99,21:10:01,592,169,-16,8,951
04/01/99,21:15:01,598,169,-16,6,951
04/01/99,21:20:01,636,169,-16,6,951
04/01/99,21:25:01,595,169,-16,6,951
04/01/99,21:30:01,626,169,-16,8,951
04/01/99,21:35:01,520,169,-16,8,951
04/01/99,21:40:01,556,172,-16,10,953
04/01/99,21:45:01,466,173,-16,10,953
04/01/99,21:50:01,627,195,-16,12,951
04/01/99,21:55:01,583,177,-16,12,953
04/01/99,22:00:01,562,173,-16,14,953
04/01/99,22:05:01,595,173,-16,14,953
04/01/99,22:10:01,531,173,-16,14,953
04/01/99,22:15:01,673,173,-16,14,953
04/01/99,22:20:01,614,173,-16,16,953
04/01/99,22:25:01,549,166,-16,16,953
04/01/99,22:30:01,666,166,-16,16,953
04/01/99,22:35:01,601,163,-16,16,953
04/01/99,22:40:01,563,173,-16,18,953
04/01/99,22:45:01,675,173,-16,18,953
04/01/99,22:50:01,826,183,-16,18,953
04/01/99,22:55:01,728,180,-16,20,953
04/01/99,23:00:01,632,175,-16,18,953
04/01/99,23:05:01,650,175,-16,20,953
04/01/99,23:10:01,596,160,-16,20,953
04/01/99,23:15:01,653,160,-16,20,953
04/01/99,23:20:01,610,170,-16,20,953
04/01/99,23:25:01,635,170,-16,20,953
04/01/99,23:30:01,538,170,-16,21,953
04/01/99,23:35:01,486,169,-16,20,953
04/01/99,23:40:01,562,162,-16,21,953
04/01/99,23:45:01,526,162,-16,21,953
04/01/99,23:50:01,466,167,-16,23,953
04/01/99,23:55:01,523,167,-16,25,953
04/02/99,00:00:01,416,167,-16,21,955
